Location: ?????????
(54.7630°N, 39.4991°E)
Time: 02:26:58
(UTC+00:00)

Cosmos 1898 Rocket - Pass Details

Date: 14 April 2026
Orbit: 750 x 778 km, 74.0° (Epoch: 20 May)

Event Time Altitude Azimuth Distance (km) Brightness Sun altitude
Rises 17:06:28 0° 209° (SSW) 3,224 6.8 -6.5°
Reaches altitude 10° 17:08:50 10° 210° (SSW) 2,297 6.0 -6.8°
Maximum altitude 17:14:04 81° 297° (WNW) 777 3.7 -7.5°
Drops below altitude 10° 17:19:17 10° 26° (NNE) 2,295 6.0 -8.2°
Sets 17:21:39 0° 28° (NNE) 3,221 6.8 -8.5°
